Time,TemperatureF,DewpointF,PressureIn,WindDirection,WindDirectionDegrees,WindSpeedMPH,WindSpeedGustMPH,Humidity,HourlyPrecipIn,Conditions,Clouds,dailyrainin,SoftwareType,DateUTC
2013-05-14 00:07:00,62.1,50.6,28.47,WSW,247,0.0,0.0,66,0.00,,,0.00,open2300-1.11,2013-05-13 21:07:00,
2013-05-14 00:12:00,61.9,50.4,28.47,SW,225,0.0,0.0,66,0.00,,,0.00,open2300-1.11,2013-05-13 21:12:00,
2013-05-14 00:17:00,61.9,50.4,28.47,SW,225,0.0,0.0,66,0.00,,,0.00,open2300-1.11,2013-05-13 21:17:00,
2013-05-14 00:22:00,61.7,50.2,28.47,WSW,247,0.0,0.0,66,0.00,,,0.00,open2300-1.11,2013-05-13 21:22:00,
2013-05-14 00:27:00,61.5,50.1,28.46,SW,225,0.0,3.8,66,0.00,,,0.00,open2300-1.11,2013-05-13 21:27:00,
2013-05-14 00:32:00,61.5,50.1,28.46,SW,225,0.0,0.0,66,0.00,,,0.00,open2300-1.11,2013-05-13 21:32:00,
2013-05-14 00:37:00,61.5,50.5,28.47,SW,225,0.0,0.0,67,0.00,,,0.00,open2300-1.11,2013-05-13 21:37:00,
2013-05-14 00:42:00,61.3,50.3,28.47,South,180,0.0,0.0,67,0.00,,,0.00,open2300-1.11,2013-05-13 21:42:00,
2013-05-14 00:52:00,61.2,50.2,28.46,SW,225,1.8,1.8,67,0.00,,,0.00,open2300-1.11,2013-05-13 21:52:00,
2013-05-14 01:02:00,61.0,49.6,28.46,SW,225,5.8,5.8,66,0.00,,,0.00,open2300-1.11,2013-05-13 22:02:00,
2013-05-14 01:07:00,61.0,49.6,28.46,SW,225,0.0,5.8,66,0.00,,,0.00,open2300-1.11,2013-05-13 22:07:00,
2013-05-14 01:17:00,61.0,49.6,28.46,SW,225,0.0,0.0,66,0.00,,,0.00,open2300-1.11,2013-05-13 22:17:00,
2013-05-14 01:22:00,61.0,49.6,28.46,SW,225,1.3,1.3,66,0.00,,,0.00,open2300-1.11,2013-05-13 22:22:00,
2013-05-14 01:27:00,61.0,49.6,28.46,SW,225,0.0,1.3,66,0.00,,,0.00,open2300-1.11,2013-05-13 22:27:00,
2013-05-14 01:32:00,61.0,49.6,28.46,SW,225,0.0,0.0,66,0.00,,,0.00,open2300-1.11,2013-05-13 22:32:00,
2013-05-14 01:37:00,61.0,49.6,28.46,SW,225,0.0,0.0,66,0.00,,,0.00,open2300-1.11,2013-05-13 22:37:00,
2013-05-14 01:43:00,61.0,49.6,28.46,SW,225,0.0,2.5,66,0.00,,,0.00,open2300-1.11,2013-05-13 22:43:00,
2013-05-14 01:52:00,61.0,49.6,28.46,SW,225,0.0,0.0,66,0.00,,,0.00,open2300-1.11,2013-05-13 22:52:00,
2013-05-14 01:57:00,61.0,49.6,28.46,SSW,202,0.0,0.0,66,0.00,,,0.00,open2300-1.11,2013-05-13 22:57:00,
2013-05-14 02:07:00,61.0,49.6,28.46,SSW,202,0.0,0.0,66,0.00,,,0.00,open2300-1.11,2013-05-13 23:07:00,
2013-05-14 02:17:00,61.0,49.6,28.46,SSW,202,0.0,0.0,66,0.00,,,0.00,open2300-1.11,2013-05-13 23:17:00,
2013-05-14 02:22:00,61.0,50.0,28.45,SSW,202,0.0,0.0,67,0.00,,,0.00,open2300-1.11,2013-05-13 23:22:00,
2013-05-14 02:32:00,61.0,50.0,28.45,SSW,202,0.0,0.0,67,0.00,,,0.00,open2300-1.11,2013-05-13 23:32:00,
2013-05-14 02:42:00,61.0,50.0,28.45,SSW,202,0.0,0.0,67,0.00,,,0.00,open2300-1.11,2013-05-13 23:42:00,
2013-05-14 02:47:00,60.8,49.8,28.45,SSW,202,0.0,0.0,67,0.00,,,0.00,open2300-1.11,2013-05-13 23:47:00,
2013-05-14 02:52:00,60.6,49.7,28.46,SSW,202,0.0,0.0,67,0.00,,,0.00,open2300-1.11,2013-05-13 23:52:00,
2013-05-14 02:58:00,60.6,49.7,28.46,SSW,202,0.0,0.0,67,0.00,,,0.00,open2300-1.11,2013-05-13 23:58:00,
2013-05-14 03:07:00,60.6,50.1,28.45,SSW,202,0.0,0.0,68,0.00,,,0.00,open2300-1.11,2013-05-14 00:07:00,
2013-05-14 03:12:00,60.6,50.1,28.45,SSW,202,0.0,0.0,68,0.00,,,0.00,open2300-1.11,2013-05-14 00:12:00,
2013-05-14 03:17:00,60.6,50.1,28.45,SSW,202,0.0,0.0,68,0.00,,,0.00,open2300-1.11,2013-05-14 00:17:00,
2013-05-14 03:22:00,60.6,50.1,28.44,SSW,202,0.0,0.0,68,0.00,,,0.00,open2300-1.11,2013-05-14 00:22:00,
2013-05-14 03:32:00,60.6,50.5,28.45,SSW,202,0.0,0.0,69,0.00,,,0.00,open2300-1.11,2013-05-14 00:32:00,
2013-05-14 03:37:00,60.6,50.1,28.45,SSW,202,0.0,0.0,68,0.00,,,0.00,open2300-1.11,2013-05-14 00:37:00,
2013-05-14 03:47:00,60.6,50.1,28.45,SSW,202,0.0,0.0,68,0.00,,,0.00,open2300-1.11,2013-05-14 00:47:00,
2013-05-14 03:57:00,60.6,50.1,28.45,SSW,202,0.0,0.0,68,0.00,,,0.00,open2300-1.11,2013-05-14 00:57:00,
2013-05-14 04:07:00,60.6,50.1,28.45,SW,225,0.0,0.0,68,0.00,,,0.00,open2300-1.11,2013-05-14 01:07:00,
2013-05-14 04:12:00,60.6,50.1,28.45,SW,225,0.0,0.0,68,0.00,,,0.00,open2300-1.11,2013-05-14 01:12:00,
2013-05-14 04:22:00,60.6,50.1,28.45,SW,225,0.0,0.0,68,0.00,,,0.00,open2300-1.11,2013-05-14 01:22:00,
2013-05-14 04:27:00,60.6,50.1,28.45,SW,225,0.0,0.0,68,0.00,,,0.00,open2300-1.11,2013-05-14 01:27:00,
2013-05-14 04:32:00,60.6,50.1,28.45,SW,225,0.0,0.0,68,0.00,,,0.00,open2300-1.11,2013-05-14 01:32:00,
2013-05-14 04:37:00,60.6,50.1,28.45,SW,225,0.0,0.0,68,0.00,,,0.00,open2300-1.11,2013-05-14 01:37:00,
2013-05-14 04:42:00,60.6,50.1,28.46,SW,225,0.0,0.0,68,0.00,,,0.00,open2300-1.11,2013-05-14 01:42:00,
2013-05-14 04:47:00,60.6,50.1,28.46,SW,225,0.0,0.0,68,0.00,,,0.00,open2300-1.11,2013-05-14 01:47:00,
2013-05-14 04:52:00,60.6,50.5,28.46,SW,225,0.0,0.0,69,0.00,,,0.00,open2300-1.11,2013-05-14 01:52:00,
2013-05-14 04:57:00,60.6,50.5,28.46,SW,225,0.0,0.0,69,0.00,,,0.00,open2300-1.11,2013-05-14 01:57:00,
2013-05-14 05:02:00,60.8,50.7,28.46,SW,225,0.0,0.0,69,0.00,,,0.00,open2300-1.11,2013-05-14 02:02:00,
2013-05-14 05:12:00,60.6,50.5,28.46,SW,225,0.0,0.0,69,0.00,,,0.00,open2300-1.11,2013-05-14 02:12:00,
2013-05-14 05:22:00,60.8,50.7,28.46,SW,225,0.0,0.0,69,0.00,,,0.00,open2300-1.11,2013-05-14 02:22:00,
2013-05-14 05:27:00,60.6,50.5,28.46,SW,225,0.0,0.0,69,0.00,,,0.00,open2300-1.11,2013-05-14 02:27:00,
2013-05-14 05:32:00,60.6,50.5,28.46,SW,225,0.0,0.0,69,0.00,,,0.00,open2300-1.11,2013-05-14 02:32:00,
2013-05-14 05:43:00,60.6,50.5,28.46,SW,225,0.0,0.0,69,0.00,,,0.00,open2300-1.11,2013-05-14 02:43:00,
2013-05-14 05:52:00,60.6,50.5,28.46,SW,225,0.0,0.0,69,0.00,,,0.00,open2300-1.11,2013-05-14 02:52:00,
2013-05-14 05:57:00,60.6,50.9,28.46,SW,225,0.0,0.0,70,0.00,,,0.00,open2300-1.11,2013-05-14 02:57:00,
2013-05-14 06:02:00,60.6,50.9,28.46,SW,225,0.0,0.0,70,0.00,,,0.00,open2300-1.11,2013-05-14 03:02:00,
2013-05-14 06:07:00,60.6,50.9,28.46,SW,225,0.0,0.0,70,0.00,,,0.00,open2300-1.11,2013-05-14 03:07:00,
2013-05-14 06:12:00,60.6,50.9,28.46,SSW,202,0.0,0.0,70,0.00,,,0.00,open2300-1.11,2013-05-14 03:12:00,
2013-05-14 06:17:00,60.6,50.9,28.45,SSW,202,0.0,0.0,70,0.00,,,0.00,open2300-1.11,2013-05-14 03:17:00,
2013-05-14 06:22:00,60.6,50.9,28.45,SSW,202,0.0,0.0,70,0.00,,,0.00,open2300-1.11,2013-05-14 03:22:00,
2013-05-14 06:27:00,60.6,50.9,28.46,SSW,202,0.0,0.0,70,0.00,,,0.00,open2300-1.11,2013-05-14 03:27:00,
2013-05-14 06:37:00,60.6,50.9,28.46,SSW,202,0.0,0.0,70,0.00,,,0.00,open2300-1.11,2013-05-14 03:37:00,
2013-05-14 06:42:00,60.6,50.9,28.46,SSW,202,0.0,0.0,70,0.00,,,0.00,open2300-1.11,2013-05-14 03:42:00,
2013-05-14 06:47:00,60.6,51.3,28.46,SSW,202,0.0,0.0,71,0.00,,,0.00,open2300-1.11,2013-05-14 03:47:00,
2013-05-14 06:52:00,60.6,51.3,28.46,SSW,202,0.0,0.0,71,0.00,,,0.00,open2300-1.11,2013-05-14 03:52:00,
2013-05-14 07:00:00,60.6,51.3,28.46,SSW,202,0.0,0.0,71,0.00,,,0.00,open2300-1.11,2013-05-14 04:00:00,
2013-05-14 07:02:00,60.6,51.6,28.46,SSW,202,0.0,0.0,72,0.00,,,0.00,open2300-1.11,2013-05-14 04:02:00,
2013-05-14 07:07:00,60.6,51.6,28.47,SSW,202,0.0,0.0,72,0.00,,,0.00,open2300-1.11,2013-05-14 04:07:00,
2013-05-14 07:12:00,60.6,51.6,28.47,SSW,202,0.0,0.0,72,0.00,,,0.00,open2300-1.11,2013-05-14 04:12:00,
2013-05-14 07:17:00,60.6,52.0,28.48,SSW,202,0.0,0.0,73,0.00,,,0.00,open2300-1.11,2013-05-14 04:17:00,
2013-05-14 07:22:00,60.4,51.8,28.48,SSW,202,0.0,0.0,73,0.00,,,0.00,open2300-1.11,2013-05-14 04:22:00,
2013-05-14 07:32:00,60.4,51.8,28.48,SSW,202,0.0,0.0,73,0.00,,,0.00,open2300-1.11,2013-05-14 04:32:00,
2013-05-14 07:42:00,60.6,52.3,28.48,SSW,202,0.0,0.0,74,0.00,,,0.00,open2300-1.11,2013-05-14 04:42:00,
2013-05-14 07:47:00,60.6,52.7,28.48,SSW,202,0.0,0.0,75,0.00,,,0.00,open2300-1.11,2013-05-14 04:47:00,
2013-05-14 07:52:00,60.6,52.7,28.49,SSW,202,0.0,0.0,75,0.00,,,0.00,open2300-1.11,2013-05-14 04:52:00,
2013-05-14 07:57:00,60.4,52.5,28.49,SSW,202,0.0,0.0,75,0.00,,,0.00,open2300-1.11,2013-05-14 04:57:00,
2013-05-14 08:02:00,60.4,52.5,28.49,SSW,202,0.0,0.0,75,0.00,,,0.00,open2300-1.11,2013-05-14 05:02:00,
2013-05-14 08:17:00,60.4,52.9,28.50,SSW,202,0.0,0.0,76,0.00,,,0.00,open2300-1.11,2013-05-14 05:17:00,
2013-05-14 08:22:00,60.4,52.9,28.50,SW,225,0.0,0.0,76,0.00,,,0.00,open2300-1.11,2013-05-14 05:22:00,
2013-05-14 08:47:00,60.4,52.9,28.52,NNE,22,0.0,0.0,76,0.00,,,0.00,open2300-1.11,2013-05-14 05:47:00,
2013-05-14 08:52:00,60.4,52.9,28.52,NNE,22,0.0,0.0,76,0.00,,,0.00,open2300-1.11,2013-05-14 05:52:00,
2013-05-14 08:57:00,60.1,52.9,28.52,NNE,22,0.0,0.0,77,0.00,,,0.00,open2300-1.11,2013-05-14 05:57:00,
2013-05-14 09:02:00,60.1,52.9,28.52,NNE,22,0.0,0.0,77,0.00,,,0.00,open2300-1.11,2013-05-14 06:02:00,
2013-05-14 09:07:00,60.1,52.9,28.52,NNE,22,0.0,0.0,77,0.00,,,0.00,open2300-1.11,2013-05-14 06:07:00,
2013-05-14 09:13:00,60.1,52.9,28.52,NNE,22,0.0,0.0,77,0.00,,,0.00,open2300-1.11,2013-05-14 06:13:00,
2013-05-14 09:22:00,60.4,53.6,28.53,NNE,22,0.0,0.0,78,0.00,,,0.00,open2300-1.11,2013-05-14 06:22:00,
2013-05-14 09:27:00,60.4,53.6,28.53,NNE,22,0.0,0.0,78,0.00,,,0.00,open2300-1.11,2013-05-14 06:27:00,
2013-05-14 09:37:00,60.6,53.8,28.53,NNE,22,0.0,0.0,78,0.00,,,0.00,open2300-1.11,2013-05-14 06:37:00,
2013-05-14 09:47:00,61.0,54.1,28.54,NNE,22,0.0,0.0,78,0.00,,,0.00,open2300-1.11,2013-05-14 06:47:00,
2013-05-14 09:52:00,60.8,53.6,28.54,NNE,22,0.0,0.0,77,0.00,,,0.00,open2300-1.11,2013-05-14 06:52:00,
2013-05-14 10:02:00,60.6,53.4,28.54,NNE,22,0.0,0.0,77,0.00,,,0.00,open2300-1.11,2013-05-14 07:02:00,
2013-05-14 10:07:00,60.6,53.4,28.54,NNE,22,0.0,0.0,77,0.00,,,0.00,open2300-1.11,2013-05-14 07:07:00,
2013-05-14 10:12:00,60.6,53.4,28.53,NNE,22,0.0,0.0,77,0.00,,,0.00,open2300-1.11,2013-05-14 07:12:00,
2013-05-14 10:22:00,60.6,53.8,28.53,NNE,22,0.0,0.0,78,0.00,,,0.00,open2300-1.11,2013-05-14 07:22:00,
2013-05-14 10:27:00,60.4,53.6,28.53,NNE,22,0.0,0.0,78,0.00,,,0.00,open2300-1.11,2013-05-14 07:27:00,
2013-05-14 10:37:00,60.4,54.0,28.53,NNE,22,0.0,0.0,79,0.00,,,0.00,open2300-1.11,2013-05-14 07:37:00,
2013-05-14 10:42:00,60.4,54.0,28.54,NNE,22,0.0,0.0,79,0.00,,,0.00,open2300-1.11,2013-05-14 07:42:00,
2013-05-14 10:47:00,60.4,54.0,28.53,NNE,22,0.0,0.0,79,0.00,,,0.00,open2300-1.11,2013-05-14 07:47:00,
2013-05-14 10:52:00,60.4,54.0,28.54,West,270,0.0,0.0,79,0.00,,,0.00,open2300-1.11,2013-05-14 07:52:00,
2013-05-14 10:57:00,60.3,53.8,28.54,West,270,0.0,0.0,79,0.00,,,0.00,open2300-1.11,2013-05-14 07:57:00,
2013-05-14 11:07:00,60.4,54.0,28.54,West,270,0.0,0.0,79,0.00,,,0.00,open2300-1.11,2013-05-14 08:07:00,
2013-05-14 11:17:00,60.6,54.1,28.55,WSW,247,0.0,0.0,79,0.00,,,0.00,open2300-1.11,2013-05-14 08:17:00,
2013-05-14 11:27:00,61.0,54.5,28.55,WSW,247,0.0,0.0,79,0.00,,,0.00,open2300-1.11,2013-05-14 08:27:00,
2013-05-14 11:32:00,61.0,54.5,28.55,WSW,247,0.0,0.0,79,0.00,,,0.00,open2300-1.11,2013-05-14 08:32:00,
2013-05-14 11:42:00,61.5,55.0,28.55,WSW,247,0.0,0.0,79,0.00,,,0.00,open2300-1.11,2013-05-14 08:42:00,
2013-05-14 11:47:00,61.7,55.1,28.55,WSW,247,0.0,0.0,79,0.00,,,0.00,open2300-1.11,2013-05-14 08:47:00,
2013-05-14 11:52:00,62.1,55.1,28.55,WSW,247,0.0,0.0,78,0.00,,,0.00,open2300-1.11,2013-05-14 08:52:00,
2013-05-14 11:57:00,62.4,55.4,28.55,WNW,292,0.0,0.0,78,0.00,,,0.00,open2300-1.11,2013-05-14 08:57:00,
2013-05-14 12:07:00,62.8,55.0,28.56,NNE,22,0.0,0.0,76,0.00,,,0.00,open2300-1.11,2013-05-14 09:07:00,
2013-05-14 12:17:00,63.0,54.5,28.56,NNE,22,0.0,1.8,74,0.00,,,0.00,open2300-1.11,2013-05-14 09:17:00,
2013-05-14 12:27:00,63.1,54.3,28.56,NE,45,1.3,1.3,73,0.00,,,0.00,open2300-1.11,2013-05-14 09:27:00,
2013-05-14 12:32:00,63.1,54.3,28.57,NNE,22,0.0,1.3,73,0.00,,,0.00,open2300-1.11,2013-05-14 09:32:00,
2013-05-14 12:42:00,63.1,54.0,28.57,NNE,22,0.0,0.0,72,0.00,,,0.00,open2300-1.11,2013-05-14 09:42:00,
2013-05-14 12:52:00,63.1,54.0,28.57,NE,45,0.0,0.0,72,0.00,,,0.00,open2300-1.11,2013-05-14 09:52:00,
2013-05-14 12:57:00,63.3,53.4,28.56,NE,45,0.0,2.5,70,0.00,,,0.00,open2300-1.11,2013-05-14 09:57:00,
2013-05-14 13:07:00,63.7,53.8,28.56,NNE,22,1.8,1.8,70,0.00,,,0.00,open2300-1.11,2013-05-14 10:07:00,
2013-05-14 13:17:00,63.9,53.5,28.57,NE,45,0.0,0.0,69,0.00,,,0.00,open2300-1.11,2013-05-14 10:17:00,
2013-05-14 13:27:00,63.7,53.3,28.57,NE,45,0.0,0.0,69,0.00,,,0.00,open2300-1.11,2013-05-14 10:27:00,
2013-05-14 13:32:00,63.7,53.3,28.57,NNE,22,0.0,2.9,69,0.00,,,0.00,open2300-1.11,2013-05-14 10:32:00,
2013-05-14 13:37:00,64.0,53.3,28.57,NNE,22,1.1,1.1,68,0.00,,,0.00,open2300-1.11,2013-05-14 10:37:00,
2013-05-14 13:47:00,64.6,53.4,28.57,NNE,22,0.0,1.1,67,0.00,,,0.00,open2300-1.11,2013-05-14 10:47:00,
2013-05-14 13:52:00,64.9,53.3,28.57,NNE,22,0.0,3.4,66,0.00,,,0.00,open2300-1.11,2013-05-14 10:52:00,
2013-05-14 13:57:00,65.1,53.4,28.57,NE,45,0.0,2.2,66,0.00,,,0.00,open2300-1.11,2013-05-14 10:57:00,
2013-05-14 14:07:00,65.3,53.6,28.57,NNE,22,0.0,0.0,66,0.00,,,0.00,open2300-1.11,2013-05-14 11:07:00,
2013-05-14 14:12:00,65.5,53.8,28.57,NNE,22,0.0,1.6,66,0.00,,,0.00,open2300-1.11,2013-05-14 11:12:00,
2013-05-14 14:22:00,65.5,53.8,28.57,NE,45,5.1,5.1,66,0.00,,,0.00,open2300-1.11,2013-05-14 11:22:00,
2013-05-14 14:27:00,65.7,53.5,28.57,NNE,22,0.0,5.1,65,0.00,,,0.00,open2300-1.11,2013-05-14 11:27:00,
2013-05-14 14:37:00,66.0,53.5,28.57,NNE,22,0.0,0.0,64,0.00,,,0.00,open2300-1.11,2013-05-14 11:37:00,
2013-05-14 14:43:00,66.7,54.1,28.56,NE,45,0.0,0.0,64,0.00,,,0.00,open2300-1.11,2013-05-14 11:43:00,
2013-05-14 14:52:00,67.8,54.3,28.57,NE,45,2.0,2.0,62,0.00,,,0.00,open2300-1.11,2013-05-14 11:52:00,
2013-05-14 14:57:00,67.8,53.8,28.57,NNE,22,0.0,7.4,61,0.00,,,0.00,open2300-1.11,2013-05-14 11:57:00,
2013-05-14 15:07:00,67.8,53.4,28.57,NE,45,0.0,4.2,60,0.00,,,0.00,open2300-1.11,2013-05-14 12:07:00,
2013-05-14 15:13:00,67.8,53.4,28.57,NNE,22,0.0,0.0,60,0.00,,,0.00,open2300-1.11,2013-05-14 12:13:00,
2013-05-14 15:22:00,68.4,53.5,28.56,North,0,0.0,1.3,59,0.00,,,0.00,open2300-1.11,2013-05-14 12:22:00,
2013-05-14 15:27:00,68.4,53.5,28.56,NE,45,0.0,0.0,59,0.00,,,0.00,open2300-1.11,2013-05-14 12:27:00,
2013-05-14 15:37:00,68.5,53.6,28.56,NNE,22,0.0,0.0,59,0.00,,,0.00,open2300-1.11,2013-05-14 12:37:00,
2013-05-14 15:42:00,68.7,53.3,28.56,NE,45,0.0,0.0,58,0.00,,,0.00,open2300-1.11,2013-05-14 12:42:00,
2013-05-14 15:47:00,68.9,53.5,28.56,NNE,22,0.7,0.7,58,0.00,,,0.00,open2300-1.11,2013-05-14 12:47:00,
2013-05-14 15:57:00,69.6,53.7,28.57,NNE,22,0.0,0.0,57,0.00,,,0.00,open2300-1.11,2013-05-14 12:57:00,
2013-05-14 16:02:00,70.2,53.7,28.57,NNE,22,0.0,0.0,56,0.00,,,0.00,open2300-1.11,2013-05-14 13:02:00,
2013-05-14 16:12:00,71.2,54.2,28.57,SW,225,0.0,0.0,55,0.00,,,0.00,open2300-1.11,2013-05-14 13:12:00,
2013-05-14 16:19:00,71.2,53.7,28.56,NNE,22,0.0,0.0,54,0.00,,,0.00,open2300-1.11,2013-05-14 13:19:00,
2013-05-14 16:27:00,72.3,54.1,28.56,NNE,22,2.7,2.7,53,0.00,,,0.00,open2300-1.11,2013-05-14 13:27:00,
2013-05-14 16:32:00,72.7,54.0,28.57,NNE,22,3.4,3.4,52,0.00,,,0.00,open2300-1.11,2013-05-14 13:32:00,
2013-05-14 16:37:00,73.2,53.9,28.56,NNE,22,0.0,3.4,51,0.00,,,0.00,open2300-1.11,2013-05-14 13:37:00,
2013-05-14 16:42:00,73.6,54.3,28.56,SW,225,0.0,0.0,51,0.00,,,0.00,open2300-1.11,2013-05-14 13:42:00,
2013-05-14 16:52:00,74.3,53.9,28.56,WNW,292,5.4,5.4,49,0.00,,,0.00,open2300-1.11,2013-05-14 13:52:00,
2013-05-14 16:57:00,74.3,53.9,28.56,NNE,22,0.0,5.4,49,0.00,,,0.00,open2300-1.11,2013-05-14 13:57:00,
2013-05-14 17:02:00,74.5,54.1,28.56,NNE,22,1.8,1.8,49,0.00,,,0.00,open2300-1.11,2013-05-14 14:02:00,
2013-05-14 17:07:00,73.9,53.5,28.56,NE,45,0.0,1.8,49,0.00,,,0.00,open2300-1.11,2013-05-14 14:07:00,
2013-05-14 17:12:00,73.9,54.1,28.56,NE,45,0.0,0.0,50,0.00,,,0.00,open2300-1.11,2013-05-14 14:12:00,
2013-05-14 17:22:00,75.0,54.6,28.56,NNE,22,0.0,1.6,49,0.00,,,0.00,open2300-1.11,2013-05-14 14:22:00,
2013-05-14 17:32:00,75.0,54.0,28.56,NE,45,0.0,0.0,48,0.00,,,0.00,open2300-1.11,2013-05-14 14:32:00,
2013-05-14 17:37:00,74.8,53.8,28.56,NNE,22,0.0,0.0,48,0.00,,,0.00,open2300-1.11,2013-05-14 14:37:00,
2013-05-14 17:47:00,75.2,54.2,28.56,NNE,22,0.0,1.6,48,0.00,,,0.00,open2300-1.11,2013-05-14 14:47:00,
2013-05-14 17:52:00,75.6,53.9,28.56,NNE,22,4.5,4.5,47,0.00,,,0.00,open2300-1.11,2013-05-14 14:52:00,
2013-05-14 18:04:00,75.6,53.9,28.56,NNE,22,0.0,0.0,47,0.00,,,0.00,open2300-1.11,2013-05-14 15:04:00,
2013-05-14 18:12:00,75.4,53.7,28.57,NNE,22,0.0,0.0,47,0.00,,,0.00,open2300-1.11,2013-05-14 15:12:00,
2013-05-14 18:22:00,75.6,53.9,28.56,NE,45,0.0,0.0,47,0.00,,,0.00,open2300-1.11,2013-05-14 15:22:00,
2013-05-14 18:27:00,75.4,53.7,28.57,NNE,22,0.0,3.6,47,0.00,,,0.00,open2300-1.11,2013-05-14 15:27:00,
2013-05-14 18:32:00,75.4,53.7,28.57,NNE,22,0.0,0.0,47,0.00,,,0.00,open2300-1.11,2013-05-14 15:32:00,
2013-05-14 18:42:00,75.7,53.4,28.57,North,0,2.7,2.7,46,0.00,,,0.00,open2300-1.11,2013-05-14 15:42:00,
2013-05-14 18:47:00,75.6,53.3,28.57,NE,45,0.0,2.7,46,0.00,,,0.00,open2300-1.11,2013-05-14 15:47:00,
2013-05-14 18:54:00,75.4,53.1,28.57,NNE,22,0.9,2.2,46,0.00,,,0.00,open2300-1.11,2013-05-14 15:54:00,
2013-05-14 19:02:00,75.0,53.4,28.57,NE,45,0.0,0.0,47,0.00,,,0.00,open2300-1.11,2013-05-14 16:02:00,
2013-05-14 19:07:00,74.8,53.2,28.57,NNE,22,0.0,0.0,47,0.00,,,0.00,open2300-1.11,2013-05-14 16:07:00,
2013-05-14 19:12:00,74.8,53.2,28.57,NE,45,0.0,7.2,47,0.00,,,0.00,open2300-1.11,2013-05-14 16:12:00,
2013-05-14 19:17:00,74.3,52.7,28.57,NNE,22,0.0,0.0,47,0.00,,,0.00,open2300-1.11,2013-05-14 16:17:00,
2013-05-14 19:22:00,73.9,52.9,28.57,NNE,22,0.0,0.0,48,0.00,,,0.00,open2300-1.11,2013-05-14 16:22:00,
2013-05-14 19:32:00,73.6,52.6,28.57,NNE,22,0.0,1.3,48,0.00,,,0.00,open2300-1.11,2013-05-14 16:32:00,
2013-05-14 19:37:00,73.0,52.7,28.57,NNE,22,0.0,0.0,49,0.00,,,0.00,open2300-1.11,2013-05-14 16:37:00,
2013-05-14 19:42:00,72.5,52.2,28.57,NNE,22,0.0,0.0,49,0.00,,,0.00,open2300-1.11,2013-05-14 16:42:00,
2013-05-14 19:47:00,72.0,51.7,28.57,NNE,22,0.0,0.0,49,0.00,,,0.00,open2300-1.11,2013-05-14 16:47:00,
2013-05-14 19:57:00,71.1,51.5,28.57,NNE,22,0.0,0.0,50,0.00,,,0.00,open2300-1.11,2013-05-14 16:57:00,
2013-05-14 20:02:00,70.5,51.0,28.58,NNE,22,0.0,0.0,50,0.00,,,0.00,open2300-1.11,2013-05-14 17:02:00,
2013-05-14 20:07:00,70.3,51.3,28.58,NNE,22,0.0,0.0,51,0.00,,,0.00,open2300-1.11,2013-05-14 17:07:00,
2013-05-14 20:17:00,70.0,51.5,28.58,NNE,22,0.0,0.0,52,0.00,,,0.00,open2300-1.11,2013-05-14 17:17:00,
2013-05-14 20:22:00,69.6,51.2,28.58,NNE,22,0.0,0.0,52,0.00,,,0.00,open2300-1.11,2013-05-14 17:22:00,
2013-05-14 20:28:00,69.4,51.0,28.58,NNE,22,0.0,0.0,52,0.00,,,0.00,open2300-1.11,2013-05-14 17:28:00,
2013-05-14 20:37:00,68.9,51.0,28.59,NNE,22,0.0,0.0,53,0.00,,,0.00,open2300-1.11,2013-05-14 17:37:00,
2013-05-14 20:42:00,68.7,50.9,28.59,NNE,22,0.0,0.0,53,0.00,,,0.00,open2300-1.11,2013-05-14 17:42:00,
2013-05-14 20:47:00,68.7,50.9,28.59,NNE,22,0.0,0.0,53,0.00,,,0.00,open2300-1.11,2013-05-14 17:47:00,
2013-05-14 20:57:00,68.4,51.0,28.59,NNE,22,0.0,0.0,54,0.00,,,0.00,open2300-1.11,2013-05-14 17:57:00,
2013-05-14 21:07:00,67.8,51.0,28.60,NNE,22,0.0,0.0,55,0.00,,,0.00,open2300-1.11,2013-05-14 18:07:00,
2013-05-14 21:17:00,67.8,51.0,28.60,NNE,22,0.0,0.0,55,0.00,,,0.00,open2300-1.11,2013-05-14 18:17:00,
2013-05-14 21:27:00,67.5,50.7,28.60,NNE,22,0.0,0.0,55,0.00,,,0.00,open2300-1.11,2013-05-14 18:27:00,
2013-05-14 21:32:00,67.3,50.5,28.60,NNE,22,0.0,0.0,55,0.00,,,0.00,open2300-1.11,2013-05-14 18:32:00,
2013-05-14 21:47:00,66.7,50.5,28.60,NNE,22,0.0,0.0,56,0.00,,,0.00,open2300-1.11,2013-05-14 18:47:00,
2013-05-14 21:52:00,66.7,50.5,28.60,NNE,22,0.0,0.0,56,0.00,,,0.00,open2300-1.11,2013-05-14 18:52:00,
2013-05-14 21:57:00,66.6,50.4,28.61,NNE,22,0.0,0.0,56,0.00,,,0.00,open2300-1.11,2013-05-14 18:57:00,
2013-05-14 22:02:00,66.4,50.2,28.61,NNE,22,0.0,0.0,56,0.00,,,0.00,open2300-1.11,2013-05-14 19:02:00,
2013-05-14 22:12:00,66.4,50.7,28.61,NNE,22,0.0,0.0,57,0.00,,,0.00,open2300-1.11,2013-05-14 19:12:00,
2013-05-14 22:17:00,66.2,50.5,28.62,NNE,22,0.0,0.0,57,0.00,,,0.00,open2300-1.11,2013-05-14 19:17:00,
2013-05-14 22:22:00,66.0,50.3,28.62,NNE,22,0.0,0.0,57,0.00,,,0.00,open2300-1.11,2013-05-14 19:22:00,
2013-05-14 22:32:00,66.0,50.3,28.61,NNE,22,0.0,0.0,57,0.00,,,0.00,open2300-1.11,2013-05-14 19:32:00,
2013-05-14 22:37:00,66.0,50.3,28.62,NNE,22,0.0,0.0,57,0.00,,,0.00,open2300-1.11,2013-05-14 19:37:00,
2013-05-14 22:42:00,65.8,50.2,28.62,NNE,22,0.0,0.0,57,0.00,,,0.00,open2300-1.11,2013-05-14 19:42:00,
2013-05-14 22:48:00,65.8,50.2,28.62,NNE,22,0.0,0.0,57,0.00,,,0.00,open2300-1.11,2013-05-14 19:48:00,
2013-05-14 22:57:00,65.8,50.2,28.62,NNE,22,0.0,0.0,57,0.00,,,0.00,open2300-1.11,2013-05-14 19:57:00,
2013-05-14 23:02:00,65.7,50.0,28.62,NNE,22,0.0,0.0,57,0.00,,,0.00,open2300-1.11,2013-05-14 20:02:00,
2013-05-14 23:12:00,65.3,50.1,28.62,NNE,22,0.0,0.0,58,0.00,,,0.00,open2300-1.11,2013-05-14 20:12:00,
2013-05-14 23:19:00,65.3,50.1,28.62,NNE,22,0.0,0.0,58,0.00,,,0.00,open2300-1.11,2013-05-14 20:19:00,
2013-05-14 23:27:00,65.1,50.4,28.62,NNE,22,0.0,0.0,59,0.00,,,0.00,open2300-1.11,2013-05-14 20:27:00,
2013-05-14 23:32:00,64.9,50.2,28.62,NNE,22,0.0,0.0,59,0.00,,,0.00,open2300-1.11,2013-05-14 20:32:00,
2013-05-14 23:42:00,64.8,50.5,28.62,NNE,22,0.0,0.0,60,0.00,,,0.00,open2300-1.11,2013-05-14 20:42:00,
2013-05-14 23:47:00,64.8,50.5,28.62,NNE,22,0.0,0.0,60,0.00,,,0.00,open2300-1.11,2013-05-14 20:47:00,
2013-05-14 23:57:00,64.6,50.4,28.62,NNE,22,0.0,0.0,60,0.00,,,0.00,open2300-1.11,2013-05-14 20:57:00,